Location: Unspecified
(48.7670°N, 0.0000°E)
Time: 10:26:23
(UTC+00:00)

Altair - Pass Details

Date: 25 June 2019
Orbit: 1501 x 1683 km, 47.2° (Epoch: 17 July)

Event Time Altitude Azimuth Distance (km) Brightness Sun altitude
Rises 19:13:47 0° 232° (SW) 4,679 10.4 6.5°
Reaches altitude 10° 19:16:50 10° 228° (SW) 3,718 9.8 6.1°
Maximum altitude 19:26:00 59° 152° (SSE) 1,799 7.7 4.8°
Drops below altitude 10° 19:35:33 10° 77° (ENE) 3,868 9.2 3.4°
Sets 19:38:47 0° 74° (ENE) 4,878 9.7 3.0°
